This demonstration page uses our WeatherBlox Daily Observations layout. Learn more.

Left ArrowRight Arrow

39.01783, -85.05884

Hourly Observations for September 29, 2020

Temp ( °F °C ) Dew Point ( °F °C ) Humidity (%) Winds ( mph kmh ) Pressure ( in mb ) Visibility ( mi km ) Precip ( " mm )
12:32 am 00:32 Mostly Clear 53 11.7 51 10.6 93 93 SSW 6 9 29.92 1013 10 16 0.00 0.00
12:52 am 00:52 Mostly Clear 53 11.7 51 10.6 93 93 SSW 6 9 29.90 1013 7 11 0.00 0.00
1:52 am 01:52 Clear 52 11.1 50 10 93 93 SSW 6 9 29.90 1012 9 14 0.00 0.00
2:52 am 02:52 Clear 51 10.6 50 10 96 96 SSW 5 7 29.90 1013 9 14 0.00 0.00
3:47 am 03:47 Mostly Clear 52 11 48 9 88 88 SW 3 6 29.92 1013 10 16 0.00 0.00
3:52 am 03:52 Mostly Clear 51 10.6 49 9.4 92 92 SW 3 6 29.90 1012 10 16 0.00 0.00
4:52 am 04:52 Clear 49 9.4 48 8.9 97 97 SSW 3 6 29.89 1012 7 11 0.00 0.00
5:52 am 05:52 Clear 49 9.4 47 8.3 93 93 WSW 5 7 29.90 1013 9 14 0.00 0.00
6:52 am 06:52 Mostly Clear with Patchy Fog 49 9.4 46 7.8 90 90 WSW 3 6 29.91 1013 7 11 0.00 0.00
7:52 am 07:52 Partly Cloudy with Patchy Fog 48 8.9 46 7.8 93 93 SW 3 6 29.92 1013 7 11 0.00 0.00
8:25 am 08:25 Sunny with Mist and Fog 48 8.9 47 8.3 96 96 Calm 29.95 1014 2 3 0.00 0.00
8:29 am 08:29 Partly Cloudy with Patchy Fog 49 9.4 47 8.3 93 93 Calm 29.95 1014 8 13 0.00 0.00
8:52 am 08:52 Mostly Sunny 51 10.6 48 8.9 89 89 Calm 29.94 1014 8 13 0.00 0.00
8:56 am 08:56 Mostly Sunny 51 10.6 48 8.9 89 89 WNW 3 6 29.96 1015 9 14 0.00 0.00
9:52 am 09:52 Mostly Cloudy 53 11.7 48 8.9 83 83 Calm 29.94 1014 9 14 0.00 0.00
10:52 am 10:52 Mostly Cloudy 56 13.3 49 9.4 77 77 Calm 29.95 1014 10 16 0.00 0.00
11:52 am 11:52 Cloudy 56 13.3 50 10 81 81 S 5 7 29.94 1014 10 16 0.00 0.00
12:52 pm 12:52 Cloudy 58 14.4 50 10 75 75 Calm 29.91 1013 10 16 0.00 0.00
1:52 pm 13:52 Cloudy 58 14.4 49 9.4 72 72 SW 5 7 29.91 1013 10 16 0.00 0.00
2:52 pm 14:52 Cloudy 59 15 51 10.6 75 75 WSW 8 13 29.88 1012 10 16 0.00 0.00
3:52 pm 15:52 Mostly Cloudy 62 16.7 49 9.4 62 62 W 6 9 29.83 1010 10 16 0.00 0.00
4:52 pm 16:52 Mostly Cloudy 62 16.7 47 8.3 58 58 VRB 5 7 29.82 1010 10 16 0.00 0.00
5:52 pm 17:52 Mostly Cloudy 60 15.6 48 8.9 65 65 SSW 7 11 29.82 1010 10 16 0.00 0.00
6:29 pm 18:29 Cloudy with Nearby Thunderstorms 58 14.4 45 7.2 62 62 W 15 24 29.84 1010 10 16 0.00 0.00
6:47 pm 18:47 Cloudy with Light Rain 55 13 46 8 72 72 W 12 19 29.85 1011 10 16 0.00 0.00
6:52 pm 18:52 Cloudy with Light Rain 55 12.8 46 7.8 72 72 W 9 15 29.84 1011 10 16 0.00 0.00
7:11 pm 19:11 Cloudy with Nearby Thunderstorms 54 12.2 47 8.3 77 77 WSW 5 7 29.84 1011 10 16 0.00 0.00
7:26 pm 19:26 Cloudy 53 11.7 48 8.9 83 83 SSW 7 11 29.85 1011 10 16 0.00 0.00
7:52 pm 19:52 Mostly Cloudy 52 11.1 49 9.4 89 89 SSW 3 6 29.84 1011 10 16 0.00 0.00
8:52 pm 20:52 Mostly Cloudy 52 11.1 48 8.9 86 86 SW 6 9 29.85 1011 10 16 0.00 0.00
9:52 pm 21:52 Mostly Clear 51 10.6 48 8.9 89 89 S 5 7 29.86 1011 10 16 0.00 0.00
10:52 pm 22:52 Mostly Clear 50 10 47 8.3 89 89 SSW 5 7 29.85 1011 10 16 0.00 0.00
11:52 pm 23:52 Mostly Clear 50 10 45 7.2 83 83 WSW 6 9 29.85 1011 10 16 0.00 0.00

Powered by AerisWeather